Back to catalog

CZ-3C DEB

AliveHEO
NORAD 42477·DEBRIS·🇨🇳 China

Launched Feb 24, 2012 from Xichang Satellite Launch Center

Loading…

Next Passes (next 24 hours)

TLE

FreshSource: Space-Track

Epoch: Sep 11, 2026, 16:36 UTC

1 42477U 12008AM  26254.69221156  .00005940  00000-0  94308-2 0  9990
2 42477  20.1059 347.3990 6917259 221.3954  57.6366  2.67759360108246

Track CZ-3C DEB in real time with AllMySat

Download on the App Store